TimeEDT,TemperatureF,Dew PointF,Humidity,Sea Level PressureIn,VisibilityMPH,Wind Direction,Wind SpeedMPH,Gust SpeedMPH,PrecipitationIn,Events,Conditions,WindDirDegrees,DateUTC
12:53 AM,36.0,36.0,100,29.76,3.0,NE,11.5,-,0.00,Rain,Light Rain,40,2014-04-04 04:53:00
1:53 AM,36.0,36.0,100,29.75,5.0,NE,9.2,-,0.00,,Overcast,40,2014-04-04 05:53:00
2:53 AM,36.0,36.0,100,29.72,4.0,NE,8.1,-,0.00,Rain,Light Rain,50,2014-04-04 06:53:00
3:26 AM,37.4,37.4,100,29.71,4.0,NE,8.1,-,0.00,Rain,Light Rain,40,2014-04-04 07:26:00
3:53 AM,36.0,36.0,100,29.73,5.0,NNE,5.8,-,0.00,Rain,Light Rain,30,2014-04-04 07:53:00
4:53 AM,37.0,37.0,100,29.70,5.0,NE,5.8,-,0.00,Rain,Light Rain,50,2014-04-04 08:53:00
5:53 AM,37.0,36.0,96,29.68,5.0,ENE,4.6,-,0.00,,Overcast,70,2014-04-04 09:53:00
6:48 AM,37.4,37.4,100,29.65,6.0,Calm,Calm,-,0.00,Rain,Light Rain,0,2014-04-04 10:48:00
6:53 AM,37.9,37.9,100,29.66,6.0,Calm,Calm,-,0.00,Rain,Light Rain,0,2014-04-04 10:53:00
7:03 AM,39.2,37.4,93,29.65,6.0,Calm,Calm,-,0.00,Rain,Light Rain,0,2014-04-04 11:03:00
7:30 AM,37.4,37.4,100,29.63,4.0,NE,3.5,-,0.00,Rain,Light Rain,50,2014-04-04 11:30:00
7:53 AM,39.0,39.0,100,29.62,3.0,East,3.5,-,0.01,Rain,Light Rain,80,2014-04-04 11:53:00
8:02 AM,41.0,39.2,93,29.60,1.5,East,4.6,-,0.00,Rain,Light Rain,100,2014-04-04 12:02:00
8:08 AM,41.0,39.2,93,29.59,0.8,ESE,3.5,-,0.01,Rain,Light Rain,110,2014-04-04 12:08:00
8:21 AM,51.8,51.8,100,29.59,2.5,SSE,9.2,-,0.01,Rain,Rain,150,2014-04-04 12:21:00
8:28 AM,53.6,51.8,94,29.58,6.0,SSE,9.2,-,0.02,Rain,Rain,150,2014-04-04 12:28:00
8:53 AM,53.1,53.1,100,29.58,6.0,SSE,11.5,-,0.03,Rain,Light Rain,150,2014-04-04 12:53:00
9:53 AM,55.0,54.0,96,29.55,10.0,SE,12.7,-,0.04,Rain,Light Rain,140,2014-04-04 13:53:00
10:53 AM,57.9,55.9,93,29.52,10.0,SSE,12.7,-,0.00,Rain,Light Rain,150,2014-04-04 14:53:00
11:09 AM,57.2,55.4,94,29.50,10.0,SSE,10.4,18.4,0.00,Rain,Light Rain,150,2014-04-04 15:09:00
11:21 AM,59.0,55.4,88,29.49,10.0,SSE,13.8,20.7,0.00,Rain,Light Rain,160,2014-04-04 15:21:00
11:28 AM,59.0,57.2,94,29.49,10.0,SSE,13.8,21.9,0.00,Rain,Light Rain,160,2014-04-04 15:28:00
11:45 AM,60.8,57.2,88,29.49,10.0,SSE,16.1,24.2,0.01,Rain,Light Rain,160,2014-04-04 15:45:00
11:53 AM,60.1,57.0,90,29.49,10.0,South,17.3,24.2,0.01,Rain,Light Rain,170,2014-04-04 15:53:00
12:37 PM,60.8,57.2,88,29.44,10.0,SSE,15.0,-,0.01,Rain,Light Rain,150,2014-04-04 16:37:00
12:53 PM,61.0,57.9,90,29.40,10.0,SSE,17.3,23.0,0.01,,Scattered Clouds,150,2014-04-04 16:53:00
1:21 PM,62.6,57.2,82,29.45,10.0,SW,15.0,-,N/A,,Mostly Cloudy,230,2014-04-04 17:21:00
1:43 PM,60.8,57.2,88,29.46,7.0,SSW,23.0,27.6,0.01,,Overcast,210,2014-04-04 17:43:00
1:53 PM,61.0,57.0,87,29.47,8.0,SSW,17.3,25.3,0.01,,Overcast,210,2014-04-04 17:53:00
2:53 PM,61.0,55.9,83,29.46,10.0,SW,16.1,-,N/A,,Overcast,220,2014-04-04 18:53:00
3:05 PM,60.8,55.4,82,29.45,10.0,SSW,10.4,19.6,N/A,,Overcast,200,2014-04-04 19:05:00
3:34 PM,62.6,57.2,82,29.43,10.0,SW,12.7,-,N/A,,Mostly Cloudy,220,2014-04-04 19:34:00
3:53 PM,64.9,57.0,75,29.42,10.0,SSW,17.3,23.0,N/A,,Scattered Clouds,200,2014-04-04 19:53:00
4:15 PM,50.0,46.4,87,29.47,1.8,West,35.7,43.7,0.08,,Mostly Cloudy,280,2014-04-04 20:15:00
4:26 PM,46.4,44.6,93,29.49,4.0,West,27.6,-,0.11,,Overcast,260,2014-04-04 20:26:00
4:53 PM,44.1,43.0,96,29.51,10.0,West,21.9,-,0.14,,Overcast,280,2014-04-04 20:53:00
5:53 PM,43.0,39.9,89,29.56,10.0,West,24.2,33.4,N/A,,Overcast,260,2014-04-04 21:53:00
6:53 PM,46.9,39.0,74,29.61,10.0,SW,34.5,43.7,N/A,,Scattered Clouds,230,2014-04-04 22:53:00
7:53 PM,44.1,35.1,71,29.67,10.0,WSW,35.7,46.0,N/A,,Overcast,250,2014-04-04 23:53:00
8:11 PM,42.8,35.6,76,29.67,10.0,West,31.1,36.8,N/A,,Overcast,260,2014-04-05 00:11:00
8:46 PM,42.8,33.8,70,29.70,10.0,WSW,23.0,34.5,N/A,,Overcast,250,2014-04-05 00:46:00
8:53 PM,42.1,35.1,76,29.71,10.0,WSW,23.0,34.5,N/A,,Overcast,240,2014-04-05 00:53:00
9:53 PM,39.9,34.0,79,29.74,10.0,WSW,28.8,38.0,0.01,,Overcast,240,2014-04-05 01:53:00
10:53 PM,39.9,30.9,70,29.76,10.0,WSW,25.3,34.5,N/A,,Overcast,240,2014-04-05 02:53:00
11:53 PM,39.0,30.9,73,29.79,10.0,WSW,20.7,31.1,N/A,,Overcast,240,2014-04-05 03:53:00